Powrót do katalogu

THORAD AGENA D DEB

AktywnyPO
NORAD 42497·DEBRIS·🇺🇸 United States

Wystrzelony Apr 8, 1970 z Vandenberg Space Force Base

Loading…

Następne Przeloty (najbliższe 24 godziny)

TLE

ŚwieżeSource: Space-Track

Epoka: Sep 14, 2026, 12:29 UTC

1 42497U 70025RB  26257.52059261  .00001157  00000-0  81470-3 0  9999
2 42497  99.9857 146.9534 0032172 279.3054  80.4470 14.00227361650585

Śledź THORAD AGENA D DEB w czasie rzeczywistym z AllMySat

Download on the App Store